Simultaneous Nadir Overpasses (SNOs) Predictions

Prediction of SNOs between AQUA and NPP Satellite Orbit:

Table of predicted SNOs for the next 14.0 days since TLE Epoch: 12/25/2015
Index Date (AQUA) Time (AQUA) Lat,Lon (AQUA) SZA (AQUA ) Date (NPP) Time (NPP) Lat,Lon (NPP) SZA (NPP ) Distance(km) Time Diff (sec)
1 12/26/2015 20:10:49 -72.90, -71.01 56.81 12/26/2015 20:09:36 -72.91, -70.94 56.76 2.41 73
2 12/26/2015 20:59:49 74.21, 99.43 121.88 12/26/2015 20:59:54 74.20, 99.35 121.89 2.67 5
3 12/26/2015 21:43:44 -79.59, 6.54 76.01 12/26/2015 21:44:57 -78.98, 4.07 76.36 84.50 73
4 12/29/2015 12:27:08 -73.37, 45.82 57.32 12/29/2015 12:26:19 -73.37, 45.84 57.27 0.52 49
5 12/29/2015 13:15:58 75.17,-142.28 120.83 12/29/2015 13:16:26 75.18,-142.22 120.79 1.64 28
6 01/01/2016 04:43:24 -74.02, 163.11 58.07 01/01/2016 04:42:59 -74.02, 163.13 58.06 0.84 25
7 01/01/2016 05:32:16 75.69, -24.93 120.17 01/01/2016 05:33:08 75.70, -24.84 120.10 2.61 52
8 01/03/2016 20:12:49 66.08, 99.56 129.40 01/03/2016 20:11:36 66.14, 98.99 129.64 26.62 73
9 01/03/2016 20:59:47 -74.27, -80.41 58.49 01/03/2016 20:59:47 -74.26, -80.48 58.47 2.09 0
10 01/03/2016 21:46:25 81.16, 124.66 112.49 01/03/2016 21:47:38 80.84, 125.63 112.27 39.32 73
11 01/06/2016 12:27:00 73.57,-133.74 122.03 01/06/2016 12:26:08 73.57,-133.69 122.07 1.45 52




NCC Satellite Simultaneous N
